Location: Portage (MI)
(42.2012°N, 85.5800°W)
Time: 07:57:41
(UTC-04:00)

Envisat - Visible Passes

Search period start: 23 July 2018 00:00
Search period end: 02 August 2018 00:00
Orbit: 764 x 766 km, 98.2° (Epoch: 22 July)

Date Brightness Start Highest point End Pass type
(mag) Time Alt. Az. Time Alt. Az. Time Alt. Az.
24 Jul 5.5 22:01:15 10° SW 22:04:57 20° W 22:08:41 10° NW visible
26 Jul 5.9 22:29:21 10° WSW 22:30:50 11° W 22:32:18 10° WNW visible
27 Jul 5.2 21:49:32 10° SSW 21:53:42 25° W 21:57:53 10° NW visible
29 Jul 5.7 22:16:47 10° WSW 22:19:31 15° W 22:22:16 10° WNW visible
30 Jul 4.8 21:37:56 10° SSW 21:42:27 32° W 21:46:59 10° NNW visible
01 Aug 5.6 22:04:46 10° SW 22:08:14 18° W 22:11:43 10° NW visible
